PAL300 RPLL-VHHH

Flight info

Callsign PAL300
Flight time 1h 41m
Altitude 36000
Route CAB2R CAB A461 NOMAN V533 BETTY
Aircraft A321/M-SDE3FGHIRWY/LB1

Departure

Time 2026-05-06 15:22
Airport Ninoy Aquino International Airport (RPLL)

Arrival

Time 2026-05-06 17:03
Airport Hong Kong International Airport (VHHH)
Time Latitude Longitude Altitude Speed Heading
2026-05-06 14:50 14.50865 121.01336 51 ft 0 kts 332°
2026-05-06 15:07 14.50847 121.01347 47 ft 4 kts 324°
2026-05-06 15:07 14.50828 121.01359 50 ft 3 kts 328°
2026-05-06 15:08 14.50808 121.01376 50 ft 4 kts 307°
2026-05-06 15:08 14.50794 121.01400 48 ft 4 kts 293°
2026-05-06 15:08 14.50791 121.01407 51 ft 0 kts 290°
2026-05-06 15:08 14.50796 121.01403 50 ft 0 kts 238°
2026-05-06 15:10 14.50795 121.01403 50 ft 0 kts 238°
2026-05-06 15:10 14.50794 121.01400 50 ft 0 kts 238°
2026-05-06 15:13 14.50792 121.01398 50 ft 2 kts 238°
2026-05-06 15:13 14.50774 121.01367 48 ft 8 kts 238°
2026-05-06 15:13 14.50734 121.01314 48 ft 9 kts 192°
2026-05-06 15:14 14.50665 121.01310 48 ft 12 kts 225°
2026-05-06 15:14 14.50615 121.01220 47 ft 17 kts 241°
2026-05-06 15:14 14.50547 121.01105 46 ft 21 kts 238°
2026-05-06 15:14 14.50471 121.00963 44 ft 24 kts 241°
2026-05-06 15:15 14.50384 121.00806 42 ft 27 kts 238°
2026-05-06 15:15 14.50290 121.00637 40 ft 28 kts 240°
2026-05-06 15:15 14.50227 121.00522 39 ft 28 kts 240°
2026-05-06 15:15 14.50127 121.00347 38 ft 28 kts 239°
2026-05-06 15:16 14.50028 121.00171 36 ft 22 kts 240°
2026-05-06 15:16 14.49968 121.00063 36 ft 8 kts 240°
2026-05-06 15:16 14.49967 121.00060 36 ft 0 kts 240°
2026-05-06 15:16 14.49962 121.00052 36 ft 2 kts 240°
2026-05-06 15:17 14.49951 121.00033 36 ft 4 kts 240°
2026-05-06 15:17 14.49933 120.99999 36 ft 7 kts 240°
2026-05-06 15:17 14.49894 120.99962 35 ft 8 kts 188°
2026-05-06 15:17 14.49869 120.99970 35 ft 0 kts 152°
2026-05-06 15:20 14.49864 120.99973 35 ft 1 kts 152°
2026-05-06 15:21 14.49850 120.99980 35 ft 4 kts 152°
2026-05-06 15:21 14.49812 121.00002 35 ft 8 kts 143°
2026-05-06 15:21 14.49813 121.00067 34 ft 12 kts 62°
2026-05-06 15:21 14.49922 121.00267 35 ft 66 kts 60°
2026-05-06 15:22 14.50264 121.00879 42 ft 130 kts 60°
2026-05-06 15:22 14.50797 121.01838 99 ft 173 kts 61°
2026-05-06 15:22 14.51405 121.02915 800 ft 170 kts 62°
2026-05-06 15:22 14.51993 121.03946 1508 ft 168 kts 59°
2026-05-06 15:23 14.52590 121.04978 2101 ft 168 kts 59°
2026-05-06 15:23 14.53200 121.06019 2607 ft 170 kts 58°
2026-05-06 15:23 14.53821 121.07063 3112 ft 170 kts 58°
2026-05-06 15:23 14.54520 121.08076 3441 ft 183 kts 42°
2026-05-06 15:24 14.55755 121.08598 3598 ft 208 kts
2026-05-06 15:24 14.57281 121.08584 3721 ft 231 kts 358°
2026-05-06 15:24 14.58979 121.08457 3849 ft 257 kts 357°
2026-05-06 15:24 14.60812 121.08312 4327 ft 269 kts 357°
2026-05-06 15:25 14.62696 121.08170 4992 ft 273 kts 357°
2026-05-06 15:25 14.64602 121.08029 5678 ft 276 kts 357°
2026-05-06 15:25 14.66534 121.07881 6373 ft 280 kts 357°
2026-05-06 15:25 14.68486 121.07721 7041 ft 282 kts 357°
2026-05-06 15:26 14.70454 121.07548 7705 ft 285 kts 357°
2026-05-06 15:26 14.72435 121.07385 8396 ft 286 kts 358°
2026-05-06 15:26 14.74431 121.07251 9067 ft 289 kts 359°
2026-05-06 15:26 14.76446 121.07126 9722 ft 291 kts 360°
2026-05-06 15:27 14.78488 121.07000 10181 ft 301 kts 359°
2026-05-06 15:27 14.80650 121.06866 10298 ft 322 kts 359°
2026-05-06 15:27 14.82949 121.06722 10466 ft 339 kts 359°
2026-05-06 15:27 14.85329 121.06572 10898 ft 346 kts 359°
2026-05-06 15:28 14.87747 121.06417 11406 ft 350 kts 359°
2026-05-06 15:28 14.90163 121.06257 11913 ft 354 kts 358°
2026-05-06 15:28 14.92664 121.06091 12429 ft 358 kts 358°
2026-05-06 15:28 14.95128 121.05927 12916 ft 361 kts 358°
2026-05-06 15:29 14.97680 121.05758 13410 ft 364 kts 358°
2026-05-06 15:29 15.00224 121.05590 13867 ft 368 kts 358°
2026-05-06 15:29 15.02787 121.05421 14301 ft 371 kts 357°
2026-05-06 15:29 15.05346 121.05252 14764 ft 372 kts 357°
2026-05-06 15:30 15.07939 121.05082 15232 ft 375 kts 357°
2026-05-06 15:30 15.10550 121.04911 15697 ft 377 kts 357°
2026-05-06 15:30 15.13176 121.04736 16162 ft 379 kts 357°
2026-05-06 15:30 15.15819 121.04559 16636 ft 382 kts 357°
2026-05-06 15:31 15.18480 121.04382 17095 ft 384 kts 357°
2026-05-06 15:31 15.21156 121.04205 17548 ft 387 kts 357°
2026-05-06 15:31 15.23848 121.04029 18013 ft 389 kts 357°
2026-05-06 15:32 15.29289 121.03674 18836 ft 394 kts 356°
2026-05-06 15:32 15.32034 121.03494 19243 ft 396 kts 356°
2026-05-06 15:32 15.34795 121.03312 19661 ft 398 kts 356°
2026-05-06 15:32 15.37567 121.03130 20092 ft 400 kts 356°
2026-05-06 15:33 15.40354 121.02950 20505 ft 402 kts 356°
2026-05-06 15:33 15.43156 121.02768 20919 ft 405 kts 356°
2026-05-06 15:33 15.45975 121.02554 21316 ft 407 kts 352°
2026-05-06 15:33 15.48749 121.01921 21705 ft 410 kts 341°
2026-05-06 15:34 15.51379 121.00768 22081 ft 412 kts 332°
2026-05-06 15:34 15.53943 120.99396 22475 ft 415 kts 332°
2026-05-06 15:34 15.56514 120.98027 22864 ft 417 kts 333°
2026-05-06 15:34 15.59100 120.96653 23250 ft 419 kts 333°
2026-05-06 15:35 15.61702 120.95270 23587 ft 422 kts 332°
2026-05-06 15:35 15.64321 120.93879 23877 ft 424 kts 332°
2026-05-06 15:35 15.66957 120.92478 24182 ft 426 kts 332°
2026-05-06 15:35 15.69598 120.91075 24483 ft 427 kts 332°
2026-05-06 15:36 15.72254 120.89665 24795 ft 429 kts 332°
2026-05-06 15:36 15.74916 120.88250 25094 ft 431 kts 332°
2026-05-06 15:36 15.77589 120.86828 25390 ft 433 kts 332°
2026-05-06 15:36 15.80277 120.85393 25684 ft 434 kts 332°
2026-05-06 15:37 15.82968 120.83957 25980 ft 436 kts 332°
2026-05-06 15:37 15.85676 120.82511 26280 ft 438 kts 332°
2026-05-06 15:37 15.88391 120.81060 26569 ft 440 kts 332°
2026-05-06 15:37 15.91117 120.79606 26856 ft 441 kts 332°
2026-05-06 15:38 15.93855 120.78146 27144 ft 443 kts 332°
2026-05-06 15:38 15.96605 120.76679 27427 ft 445 kts 332°
2026-05-06 15:38 15.99363 120.75205 27733 ft 447 kts 332°
2026-05-06 15:38 16.02129 120.73726 28035 ft 448 kts 332°
2026-05-06 15:39 16.04905 120.72245 28332 ft 449 kts 332°
2026-05-06 15:39 16.07692 120.70759 28616 ft 451 kts 332°
2026-05-06 15:39 16.10491 120.69267 28882 ft 453 kts 332°
2026-05-06 15:39 16.13304 120.67767 29145 ft 455 kts 332°
2026-05-06 15:40 16.16087 120.66278 29390 ft 456 kts 332°
2026-05-06 15:40 16.18913 120.64763 29647 ft 458 kts 332°
2026-05-06 15:40 16.21750 120.63241 29910 ft 460 kts 332°
2026-05-06 15:40 16.24599 120.61713 30129 ft 462 kts 332°
2026-05-06 15:41 16.27460 120.60182 30366 ft 463 kts 332°
2026-05-06 15:41 16.30334 120.58642 30594 ft 465 kts 332°
2026-05-06 15:41 16.33215 120.57096 30834 ft 466 kts 332°
2026-05-06 15:41 16.36103 120.55547 31061 ft 468 kts 332°
2026-05-06 15:42 16.38990 120.53996 31377 ft 467 kts 332°
2026-05-06 15:42 16.41871 120.52448 31713 ft 465 kts 332°
2026-05-06 15:42 16.44744 120.50903 32010 ft 465 kts 332°
2026-05-06 15:42 16.47618 120.49359 32342 ft 464 kts 332°
2026-05-06 15:43 16.50526 120.47800 32674 ft 463 kts 332°
2026-05-06 15:43 16.53387 120.46264 32998 ft 462 kts 332°
2026-05-06 15:43 16.56245 120.44730 33314 ft 461 kts 332°
2026-05-06 15:43 16.59093 120.43199 33619 ft 460 kts 332°
2026-05-06 15:44 16.61935 120.41670 33901 ft 460 kts 332°
2026-05-06 15:44 16.64788 120.40138 33970 ft 460 kts 332°
2026-05-06 15:44 16.70463 120.37068 33950 ft 459 kts 329°
2026-05-06 15:45 16.75433 120.32966 33950 ft 456 kts 313°
2026-05-06 15:45 16.79785 120.28189 33925 ft 457 kts 313°
2026-05-06 15:46 16.84176 120.23386 33926 ft 457 kts 313°
2026-05-06 15:46 16.88559 120.18584 33925 ft 457 kts 313°
2026-05-06 15:47 16.92942 120.13769 33920 ft 457 kts 313°
2026-05-06 15:47 16.97320 120.08957 33919 ft 457 kts 313°
2026-05-06 15:48 17.01699 120.04140 33919 ft 457 kts 313°
2026-05-06 15:48 17.06082 119.99318 33917 ft 457 kts 312°
2026-05-06 15:49 17.10463 119.94497 33917 ft 457 kts 312°
2026-05-06 15:49 17.14839 119.89673 33920 ft 457 kts 312°
2026-05-06 15:50 17.19219 119.84843 33920 ft 457 kts 313°
2026-05-06 15:50 17.23598 119.80013 33920 ft 457 kts 313°
2026-05-06 15:51 17.27976 119.75182 33921 ft 457 kts 312°
2026-05-06 15:51 17.31615 119.71157 33920 ft 457 kts 312°
2026-05-06 15:52 17.35985 119.66326 33923 ft 457 kts 313°
2026-05-06 15:52 17.40361 119.61495 33922 ft 456 kts 312°
2026-05-06 15:53 17.44719 119.56677 33923 ft 456 kts 312°
2026-05-06 15:53 17.49068 119.51849 33923 ft 455 kts 312°
2026-05-06 15:54 17.53412 119.47020 33926 ft 455 kts 312°
2026-05-06 15:54 17.57761 119.42198 33926 ft 455 kts 312°
2026-05-06 15:55 17.62110 119.37375 33928 ft 455 kts 312°
2026-05-06 15:55 17.66450 119.32546 33928 ft 455 kts 312°
2026-05-06 15:56 17.70796 119.27712 33928 ft 455 kts 312°
2026-05-06 15:56 17.75142 119.22884 33935 ft 455 kts 312°
2026-05-06 15:57 17.79479 119.18054 33928 ft 453 kts 312°
2026-05-06 15:57 17.83799 119.13228 33931 ft 453 kts 312°
2026-05-06 15:58 17.88125 119.08395 33934 ft 453 kts 312°
2026-05-06 15:58 17.92445 119.03575 33934 ft 453 kts 312°
2026-05-06 15:59 17.96768 118.98746 33934 ft 453 kts 311°
2026-05-06 15:59 18.01086 118.93911 33935 ft 453 kts 312°
2026-05-06 16:00 18.05397 118.89093 33937 ft 451 kts 312°
2026-05-06 16:00 18.09676 118.84298 33937 ft 451 kts 311°
2026-05-06 16:01 18.13956 118.79483 33932 ft 450 kts 312°
2026-05-06 16:01 18.18237 118.74676 33934 ft 450 kts 312°
2026-05-06 16:02 18.22523 118.69872 33934 ft 450 kts 312°
2026-05-06 16:02 18.26807 118.65075 33942 ft 449 kts 312°
2026-05-06 16:03 18.31071 118.60285 33939 ft 447 kts 312°
2026-05-06 16:03 18.35321 118.55495 33939 ft 447 kts 312°
2026-05-06 16:04 18.39558 118.50711 33939 ft 447 kts 312°
2026-05-06 16:04 18.43800 118.45928 33942 ft 447 kts 312°
2026-05-06 16:05 18.48052 118.41136 33939 ft 447 kts 312°
2026-05-06 16:05 18.52297 118.36347 33943 ft 447 kts 312°
2026-05-06 16:06 18.56510 118.31583 33942 ft 447 kts 312°
2026-05-06 16:06 18.60748 118.26796 33942 ft 446 kts 312°
2026-05-06 16:07 18.64989 118.22001 33939 ft 446 kts 311°
2026-05-06 16:07 18.69221 118.17200 33939 ft 446 kts 311°
2026-05-06 16:08 18.73454 118.12396 33942 ft 447 kts 311°
2026-05-06 16:08 18.77690 118.07601 33942 ft 447 kts 312°
2026-05-06 16:09 18.81923 118.02806 33943 ft 446 kts 311°
2026-05-06 16:09 18.86143 117.98013 33942 ft 446 kts 311°
2026-05-06 16:10 18.90364 117.93207 33941 ft 446 kts 311°
2026-05-06 16:10 18.94583 117.88404 33941 ft 446 kts 311°
2026-05-06 16:11 18.98799 117.83602 33941 ft 446 kts 311°
2026-05-06 16:11 19.03021 117.78799 33946 ft 446 kts 311°
2026-05-06 16:12 19.07234 117.73989 33940 ft 446 kts 311°
2026-05-06 16:12 19.11452 117.69180 33941 ft 446 kts 311°
2026-05-06 16:13 19.15668 117.64359 33946 ft 446 kts 311°
2026-05-06 16:13 19.19873 117.59532 33942 ft 446 kts 311°
2026-05-06 16:14 19.24086 117.54712 33942 ft 445 kts 311°
2026-05-06 16:14 19.28291 117.49900 33943 ft 445 kts 311°
2026-05-06 16:15 19.32496 117.45083 33945 ft 445 kts 311°
2026-05-06 16:15 19.36689 117.40268 33945 ft 445 kts 311°
2026-05-06 16:16 19.40898 117.35447 33942 ft 445 kts 311°
2026-05-06 16:16 19.45096 117.30631 33948 ft 445 kts 311°
2026-05-06 16:17 19.49314 117.25774 33948 ft 445 kts 311°
2026-05-06 16:17 19.53484 117.20974 33948 ft 445 kts 311°
2026-05-06 16:18 19.57693 117.16132 33948 ft 445 kts 311°
2026-05-06 16:18 19.61881 117.11304 33949 ft 444 kts 311°
2026-05-06 16:19 19.66065 117.06474 33950 ft 444 kts 311°
2026-05-06 16:19 19.70243 117.01644 33951 ft 444 kts 311°
2026-05-06 16:20 19.74428 116.96813 33950 ft 444 kts 311°
2026-05-06 16:20 19.78585 116.92007 33951 ft 444 kts 311°
2026-05-06 16:21 19.82765 116.87170 33950 ft 444 kts 311°
2026-05-06 16:21 19.86945 116.82334 33951 ft 444 kts 311°
2026-05-06 16:22 19.91116 116.77489 33953 ft 444 kts 311°
2026-05-06 16:22 19.95280 116.72639 33953 ft 444 kts 311°
2026-05-06 16:23 19.99401 116.67749 33953 ft 443 kts 306°
2026-05-06 16:23 20.02501 116.62104 33953 ft 442 kts 297°
2026-05-06 16:24 20.05356 116.56311 33953 ft 442 kts 297°
2026-05-06 16:24 20.08222 116.50519 33954 ft 442 kts 297°
2026-05-06 16:25 20.11093 116.44728 33952 ft 442 kts 297°
2026-05-06 16:25 20.13954 116.38940 33954 ft 442 kts 297°
2026-05-06 16:26 20.16325 116.34121 33953 ft 442 kts 297°
2026-05-06 16:26 20.19176 116.28319 33953 ft 442 kts 297°
2026-05-06 16:27 20.22483 116.21578 33952 ft 441 kts 297°
2026-05-06 16:27 20.24866 116.16716 33953 ft 441 kts 297°
2026-05-06 16:28 20.27705 116.10924 33956 ft 441 kts 297°
2026-05-06 16:28 20.30549 116.05137 33956 ft 441 kts 297°
2026-05-06 16:29 20.33383 115.99378 33953 ft 441 kts 297°
2026-05-06 16:29 20.36217 115.93578 33953 ft 441 kts 297°
2026-05-06 16:30 20.38561 115.88760 33956 ft 440 kts 297°
2026-05-06 16:30 20.41860 115.81998 33961 ft 439 kts 297°
2026-05-06 16:31 20.44669 115.76231 33961 ft 438 kts 297°
2026-05-06 16:31 20.47478 115.70460 33961 ft 438 kts 297°
2026-05-06 16:32 20.50289 115.64692 33958 ft 438 kts 297°
2026-05-06 16:32 20.53076 115.58959 33958 ft 437 kts 297°
2026-05-06 16:33 20.56225 115.53443 33771 ft 432 kts 309°
2026-05-06 16:33 20.58291 115.51161 33515 ft 424 kts 314°
2026-05-06 16:34 20.62466 115.46831 33001 ft 415 kts 314°
2026-05-06 16:34 20.64523 115.44676 32759 ft 413 kts 314°
2026-05-06 16:34 20.66569 115.42529 32521 ft 412 kts 314°
2026-05-06 16:34 20.68638 115.40354 32265 ft 411 kts 314°
2026-05-06 16:35 20.70671 115.38215 32022 ft 410 kts 314°
2026-05-06 16:35 20.72703 115.36077 31787 ft 408 kts 314°
2026-05-06 16:35 20.74725 115.33954 31548 ft 407 kts 314°
2026-05-06 16:35 20.76747 115.31836 31305 ft 407 kts 314°
2026-05-06 16:36 20.78767 115.29721 31074 ft 406 kts 314°
2026-05-06 16:36 20.80778 115.27611 30846 ft 404 kts 314°
2026-05-06 16:36 20.82778 115.25507 30606 ft 402 kts 314°
2026-05-06 16:36 20.84773 115.23411 30391 ft 401 kts 314°
2026-05-06 16:37 20.86747 115.21337 30070 ft 396 kts 314°
2026-05-06 16:37 20.88704 115.19277 29572 ft 393 kts 314°
2026-05-06 16:37 20.90645 115.17235 29131 ft 390 kts 314°
2026-05-06 16:37 20.92563 115.15225 28698 ft 387 kts 314°
2026-05-06 16:38 20.94481 115.13212 28272 ft 385 kts 314°
2026-05-06 16:38 20.96383 115.11211 27846 ft 383 kts 314°
2026-05-06 16:38 20.98283 115.09209 27430 ft 381 kts 313°
2026-05-06 16:38 21.00162 115.07223 27030 ft 379 kts 313°
2026-05-06 16:39 21.02034 115.05244 26628 ft 377 kts 313°
2026-05-06 16:39 21.03894 115.03283 26229 ft 374 kts 313°
2026-05-06 16:39 21.05745 115.01334 25841 ft 372 kts 314°
2026-05-06 16:39 21.07591 114.99392 25421 ft 371 kts 313°
2026-05-06 16:40 21.09427 114.97456 25019 ft 369 kts 313°
2026-05-06 16:40 21.11255 114.95526 24596 ft 368 kts 313°
2026-05-06 16:40 21.13077 114.93602 24175 ft 367 kts 313°
2026-05-06 16:40 21.14891 114.91684 23764 ft 366 kts 313°
2026-05-06 16:41 21.16702 114.89764 23285 ft 365 kts 312°
2026-05-06 16:41 21.18502 114.87854 22837 ft 363 kts 312°
2026-05-06 16:41 21.20288 114.85958 22397 ft 360 kts 312°
2026-05-06 16:41 21.22066 114.84075 21960 ft 358 kts 312°
2026-05-06 16:42 21.23831 114.82208 21523 ft 356 kts 312°
2026-05-06 16:42 21.25585 114.80351 21094 ft 353 kts 313°
2026-05-06 16:42 21.27329 114.78505 20672 ft 351 kts 313°
2026-05-06 16:42 21.29064 114.76668 20233 ft 350 kts 313°
2026-05-06 16:43 21.30791 114.74839 19816 ft 348 kts 313°
2026-05-06 16:43 21.32486 114.73044 19397 ft 346 kts 313°
2026-05-06 16:43 21.34193 114.71231 18966 ft 345 kts 313°
2026-05-06 16:43 21.35899 114.69425 18555 ft 343 kts 313°
2026-05-06 16:44 21.37596 114.67630 18114 ft 342 kts 313°
2026-05-06 16:44 21.39286 114.65837 17669 ft 340 kts 313°
2026-05-06 16:44 21.40960 114.64057 17251 ft 337 kts 313°
2026-05-06 16:44 21.42623 114.62286 16842 ft 335 kts 313°
2026-05-06 16:45 21.44268 114.60534 16435 ft 332 kts 313°
2026-05-06 16:45 21.45904 114.58793 16029 ft 330 kts 313°
2026-05-06 16:45 21.47548 114.57086 15624 ft 329 kts 318°
2026-05-06 16:45 21.49448 114.55726 15223 ft 329 kts 332°
2026-05-06 16:46 21.51589 114.54849 14824 ft 329 kts 340°
2026-05-06 16:46 21.53740 114.54108 14414 ft 329 kts 340°
2026-05-06 16:46 21.55917 114.53359 14002 ft 328 kts 340°
2026-05-06 16:46 21.58084 114.52610 13580 ft 327 kts 340°
2026-05-06 16:47 21.60210 114.51784 13161 ft 323 kts 332°
2026-05-06 16:47 21.62084 114.50510 12789 ft 316 kts 317°
2026-05-06 16:47 21.63606 114.48863 12663 ft 309 kts 311°
2026-05-06 16:47 21.65072 114.47153 12519 ft 311 kts 311°
2026-05-06 16:48 21.66549 114.45452 12345 ft 311 kts 311°
2026-05-06 16:48 21.68023 114.43757 12170 ft 308 kts 311°
2026-05-06 16:48 21.69485 114.42073 11994 ft 307 kts 310°
2026-05-06 16:48 21.70940 114.40396 11819 ft 307 kts 311°
2026-05-06 16:49 21.72399 114.38711 11646 ft 307 kts 311°
2026-05-06 16:49 21.73853 114.37035 11476 ft 306 kts 311°
2026-05-06 16:49 21.75304 114.35358 11293 ft 307 kts 311°
2026-05-06 16:49 21.76755 114.33678 11125 ft 306 kts 311°
2026-05-06 16:50 21.78205 114.32001 10993 ft 306 kts 311°
2026-05-06 16:50 21.79654 114.30324 10973 ft 306 kts 311°
2026-05-06 16:50 21.81105 114.28647 10975 ft 306 kts 311°
2026-05-06 16:50 21.82551 114.26976 10973 ft 304 kts 310°
2026-05-06 16:51 21.83973 114.25330 10974 ft 305 kts 311°
2026-05-06 16:51 21.85415 114.23660 10843 ft 302 kts 310°
2026-05-06 16:51 21.86838 114.22011 10514 ft 299 kts 310°
2026-05-06 16:51 21.88246 114.20378 10192 ft 296 kts 310°
2026-05-06 16:52 21.89525 114.18665 9878 ft 291 kts 299°
2026-05-06 16:52 21.90507 114.16778 9527 ft 287 kts 297°
2026-05-06 16:52 21.91473 114.14901 9177 ft 286 kts 297°
2026-05-06 16:52 21.92438 114.13034 8826 ft 285 kts 297°
2026-05-06 16:53 21.93400 114.11176 8479 ft 283 kts 297°
2026-05-06 16:53 21.94361 114.09322 8141 ft 283 kts 297°
2026-05-06 16:53 21.95320 114.07473 7802 ft 282 kts 297°
2026-05-06 16:53 21.96274 114.05627 7473 ft 282 kts 297°
2026-05-06 16:54 21.97227 114.03778 7139 ft 281 kts 297°
2026-05-06 16:54 21.98178 114.01929 6811 ft 281 kts 297°
2026-05-06 16:54 21.99126 114.00087 6488 ft 281 kts 297°
2026-05-06 16:54 22.00070 113.98252 6147 ft 280 kts 297°
2026-05-06 16:55 22.01011 113.96425 5801 ft 278 kts 297°
2026-05-06 16:55 22.01954 113.94601 5459 ft 278 kts 297°
2026-05-06 16:55 22.02894 113.92781 5120 ft 277 kts 297°
2026-05-06 16:55 22.03825 113.90977 4959 ft 276 kts 297°
2026-05-06 16:56 22.04759 113.89164 4966 ft 278 kts 297°
2026-05-06 16:56 22.05699 113.87342 4964 ft 278 kts 297°
2026-05-06 16:56 22.06638 113.85516 4967 ft 279 kts 297°
2026-05-06 16:56 22.07577 113.83683 4967 ft 279 kts 297°
2026-05-06 16:57 22.08514 113.81858 4970 ft 278 kts 297°
2026-05-06 16:57 22.09453 113.80031 4970 ft 278 kts 297°
2026-05-06 16:57 22.10551 113.78316 4968 ft 280 kts 311°
2026-05-06 16:57 22.12028 113.76983 4971 ft 281 kts 328°
2026-05-06 16:58 22.13782 113.76045 4938 ft 282 kts 335°
2026-05-06 16:58 22.15596 113.75147 4273 ft 292 kts 335°
2026-05-06 16:58 22.17414 113.74238 3945 ft 280 kts 335°
2026-05-06 16:58 22.19126 113.73380 3796 ft 262 kts 335°
2026-05-06 16:59 22.20734 113.72576 3678 ft 246 kts 335°
2026-05-06 16:59 22.22300 113.71884 3565 ft 242 kts 350°
2026-05-06 16:59 22.23904 113.71982 3459 ft 226 kts 21°
2026-05-06 16:59 22.25194 113.72881 3123 ft 220 kts 44°
2026-05-06 17:00 22.26343 113.73963 2822 ft 217 kts 43°
2026-05-06 17:00 22.27480 113.75031 2543 ft 215 kts 46°
2026-05-06 17:00 22.28309 113.76316 2271 ft 206 kts 72°
2026-05-06 17:00 22.28781 113.77760 1998 ft 203 kts 74°
2026-05-06 17:01 22.29243 113.79196 1740 ft 202 kts 74°
2026-05-06 17:01 22.29704 113.80626 1471 ft 201 kts 73°
2026-05-06 17:01 22.30162 113.82044 1227 ft 195 kts 73°
2026-05-06 17:01 22.30588 113.83358 988 ft 177 kts 73°
2026-05-06 17:02 22.30977 113.84562 769 ft 163 kts 72°
2026-05-06 17:02 22.31340 113.85689 577 ft 153 kts 73°
2026-05-06 17:02 22.31674 113.86724 414 ft 143 kts 72°
2026-05-06 17:02 22.31991 113.87720 212 ft 138 kts 72°
2026-05-06 17:03 22.32307 113.88690 47 ft 136 kts 72°
2026-05-06 17:03 22.32573 113.89521 32 ft 95 kts 71°
2026-05-06 17:03 22.32733 113.90017 31 ft 45 kts 71°
2026-05-06 17:03 22.32814 113.90292 32 ft 36 kts 81°
2026-05-06 17:04 22.32813 113.90463 33 ft 33 kts 99°
2026-05-06 17:04 22.32780 113.90722 33 ft 25 kts 78°
2026-05-06 17:04 22.32836 113.90898 33 ft 25 kts 71°
2026-05-06 17:04 22.32895 113.91081 33 ft 27 kts 71°
2026-05-06 17:05 22.32937 113.91212 32 ft 28 kts 71°
2026-05-06 17:05 22.32999 113.91414 31 ft 29 kts 72°
2026-05-06 17:05 22.33070 113.91628 33 ft 31 kts 71°
2026-05-06 17:05 22.33141 113.91852 32 ft 32 kts 72°
2026-05-06 17:06 22.33182 113.92012 32 ft 15 kts 103°
2026-05-06 17:06 22.33092 113.92061 32 ft 16 kts 161°
2026-05-06 17:06 22.32969 113.92105 32 ft 21 kts 161°
2026-05-06 17:06 22.32822 113.92160 32 ft 24 kts 160°
2026-05-06 17:07 22.32649 113.92226 32 ft 28 kts 160°
2026-05-06 17:07 22.32453 113.92300 31 ft 32 kts 160°
2026-05-06 17:07 22.32235 113.92379 32 ft 32 kts 161°
2026-05-06 17:07 22.32131 113.92458 32 ft 17 kts 92°
2026-05-06 17:08 22.32169 113.92586 31 ft 19 kts 71°
2026-05-06 17:08 22.32178 113.92689 32 ft 12 kts 142°
2026-05-06 17:08 22.32092 113.92724 34 ft 14 kts 161°
2026-05-06 17:08 22.31987 113.92763 34 ft 18 kts 161°
2026-05-06 17:09 22.31880 113.92778 32 ft 15 kts 220°
2026-05-06 17:09 22.31831 113.92662 32 ft 19 kts 250°
2026-05-06 17:09 22.31782 113.92510 31 ft 24 kts 251°
2026-05-06 17:09 22.31724 113.92328 32 ft 27 kts 251°
2026-05-06 17:10 22.31657 113.92120 32 ft 31 kts 251°
2026-05-06 17:10 22.31583 113.92035 32 ft 17 kts 163°
2026-05-06 17:10 22.31462 113.92081 32 ft 15 kts 161°
2026-05-06 17:10 22.31394 113.92170 32 ft 17 kts 116°
2026-05-06 17:11 22.31342 113.92286 31 ft 14 kts 116°
2026-05-06 17:11 22.31308 113.92362 32 ft 7 kts 108°
2026-05-06 17:11 22.31341 113.92396 32 ft 8 kts 18°
2026-05-06 17:11 22.31378 113.92413 32 ft 4 kts 25°
2026-05-06 17:12 22.31382 113.92415 32 ft 0 kts 25°